Regional Weather Roundup
Issued by NWS

Home | Current Version | Previous Version | Graphics & Text | Print | Product List | Glossary On
Versions: 1 2 3 4 5 6 7 8 9 10 11 12 13 14 15 16 17 18 19 20 21 22 23 24 25 26 27 28 29 30 31 32 33 34 35 36 37 38 39 40 41 42 43 44 45 46 47 48 49 50
000
ASUS43 KLOT 210810
RWRIL

ILLINOIS REGIONAL WEATHER ROUNDUP
NATIONAL WEATHER SERVICE CHICAGO/ROMEOVILLE IL
200 AM CST SUN DEC 21 2014

NOTE: "FAIR" INDICATES FEW OR NO CLOUDS BELOW 12,000 FEET WITH NO
SIGNIFICANT WEATHER AND/OR OBSTRUCTIONS TO VISIBILITY.

* THESE STATIONS ARE NOT UNDER NWS QUALITY CONTROL. THEY ALSO MAY NOT
  REPORT WEATHER SUCH AS PRECIPITATION OR FOG.

ILZ001-002-007-009-015-016-024-210900-
NORTHWEST ILLINOIS

CITY           SKY/WX    TMP DP  RH WIND       PRES   REMARKS
MOLINE         CLOUDY    34  32  92 S7        30.17S FOG     WCI  28
STERLING*      CLOUDY    34  28  80 S3        30.20R
SAVANNA*       DRIZZLE   33  32  96 S9        30.18S WCI  25
$$

ILZ003-004-008-010-011-017-018-210900-
NORTH CENTRAL ILLINOIS

CITY           SKY/WX    TMP DP  RH WIND       PRES   REMARKS
ROCKFORD       CLOUDY    32  28  85 S7        30.22S WCI  26
FREEPORT*      CLOUDY    31  30  94 S9        30.20R FOG     WCI  23
ROCHELLE*      CLOUDY    31  29  93 S5        30.22R FOG     WCI  26
DE KALB*       CLOUDY    29  28  94 SE9       30.21S FOG     WCI  21
PERU*          CLOUDY    33  31  90 S9        30.22S WCI  26
$$

ILZ005-006-012>014-019>023-210900-
NORTHEAST ILLINOIS

CITY           SKY/WX    TMP DP  RH WIND       PRES   REMARKS
CHICAGO-OHARE  CLOUDY    32  26  78 S7        30.23S WCI  26
CHICAGO-MIDWAY CLOUDY    34  27  75 S8        30.25R WCI  27
AURORA         CLOUDY    33  27  78 SE8       30.23S WCI  26
LANSING*       CLOUDY    32  28  83 S6        30.26S WCI  26
JOLIET*        CLOUDY    32  28  83 S5        30.24S WCI  27
WAUKEGAN       CLOUDY    31  26  82 S7        30.22S WCI  24
DUPAGE AIRPORT CLOUDY    32  27  81 S8        30.22S WCI  25
KANKAKEE*      CLOUDY    32  28  85 S6        30.27S WCI  26
WHEELING       CLOUDY    32  26  78 S8        30.25S WCI  25
MORRIS*        CLOUDY    32  30  93 SE8       30.23S WCI  25
ROMEOVILLE*    CLOUDY    32  28  86 S9        30.24S WCI  24
NORTHERLY ISL    N/A     33  26  76 S8          N/A  WCI  26
$$

LMZ740>746-210900-
SOUTHERN LAKE MICHIGAN

STATION/POSITION SKY/WX   TEMP    WIND        PRES    VSBY  WAVE
                          AIR SEA DIR/SP/G                  HT/PER
                          (F)     (DEG/KT/KT) (MB)    (MI)  (FT/S)
WAUKEGAN HARBOR            33     190/  8/ 12   N/A
HARRISON CRIB              33     180/ 13/ 15   N/A
BURNHAM HARBOR             33     180/  8/  9   N/A
CALUMET HARBOR             33     170/  7/ 12 1023.2R
$$

ILZ025>027-034>036-040-047-049-050-058-095>099-210900-
WEST-CENTRAL ILLINOIS

CITY           SKY/WX    TMP DP  RH WIND       PRES   REMARKS
QUINCY         CLOUDY    38  34  85 S7        30.18S WCI  33
GALESBURG*     CLOUDY    34  32  94 SE6       30.18F FOG     WCI  29
MACOMB*        CLOUDY    35  34  95 S7        30.20F FOG     WCI  29
JACKSONVILLE*  CLOUDY    39  34  81 S9        30.20F WCI  33
PITTSFIELD*    CLOUDY    37  35  89 CALM      30.20S
$$

ILZ028>032-037-038-041>044-048-051>054-059>061-210900-
CENTRAL ILLINOIS

CITY           SKY/WX    TMP DP  RH WIND       PRES   REMARKS
PONTIAC        CLOUDY    34  31  88 S9        30.24S WCI  26
BLOOMINGTON    CLOUDY    32  30  92 S7        30.24S WCI  26
DECATUR        CLOUDY    34  28  79 S9        30.25S WCI  27
PEORIA         CLOUDY    36  29  75 S6        30.22S WCI  31
LACON*         CLOUDY    34  29  82 S6        30.21S WCI  29
LINCOLN*       CLOUDY    35  32  88 S7        30.24S WCI  29
SPRINGFIELD    CLOUDY    37  31  78 S9        30.22F WCI  30
TAYLORVILLE    CLOUDY    34  30  86 SE7       30.24S WCI  28
$$

ILZ033-039-045-046-055>057-062-063-210900-
EAST-CENTRAL ILLINOIS

CITY           SKY/WX    TMP DP  RH WIND       PRES   REMARKS
CHAMPAIGN      CLOUDY    32  27  81 S8        30.26R WCI  25
DANVILLE*      CLOUDY    29  27  90 SE6       30.24S WCI  23
RANTOUL*       CLOUDY    32  30  90 S6        30.26S WCI  27
MATTOON        CLOUDY    31  26  82 S8        30.26R WCI  23
PARIS*         CLOUDY    30  28  94 SE3       30.29S FOG
$$

ILZ079-100>102-210900-
SOUTHWEST ILLINOIS

CITY           SKY/WX    TMP DP  RH WIND       PRES   REMARKS
ALTON          CLOUDY    38  33  81 SE7       30.24S WCI  33
BELLEVILLE     CLOUDY    38  34  84 SE7       30.25R WCI  33
CAHOKIA*       CLOUDY    40  34  79 SE8       30.24S
SPARTA*        CLOUDY    36  30  79 SE5       30.27R WCI  32
$$

ILZ064>066-069>071-074>076-080>082-084>086-088>090-092>094-210900-
SOUTH-CENTRAL ILLINOIS

CITY           SKY/WX    TMP DP  RH WIND       PRES   REMARKS
CARBONDALE     MOCLDY    28  25  88 CALM      30.28R
CAIRO*         CLEAR     30  30 100 CALM      30.28R
EFFINGHAM*     CLOUDY    33  27  78 SE5       30.29S WCI  28
MARION         CLEAR     30  27  86 CALM      30.28S
MT. VERNON     CLOUDY    36  27  69 CALM      30.28S
CENTRALIA*     CLOUDY    35  29  79 SE5       30.26F WCI  31
SALEM*         CLOUDY    37  29  75 SE5       30.27S WCI  33
METROPOLIS*    CLEAR     26  26 100 CALM      30.27R FOG
$$

ILZ067-068-072-073-078-083-087-091-210900-
SOUTHEAST ILLINOIS

CITY           SKY/WX    TMP DP  RH WIND       PRES   REMARKS
LAWRENCEVILLE  CLEAR     24  23  96 E3        30.30S FOG
FLORA*         CLEAR     32  28  86 SE5       30.29S WCI  27
FAIRFIELD*     PTCLDY    30  26  87 CALM      30.28R
HARRISBURG*    CLEAR     27  26  97 NE3       30.30R
ROBINSON*      FOG       22  22  98 CALM      30.32R VSB 1/4
CARMI*         CLEAR     26  26 100 CALM      30.29S FOG
$$

ABBREVIATIONS USED IN REMARKS
   TC - TEMPERATURE IN CELSIUS
  WCI - WIND CHILL INDEX
   HX - HEAT INDEX
  VSB - VISIBILITY
$$




USA.gov is the U.S. government's official web portal to all federal, state and local government web resources and services.